Location: Maidenhead
(51.5224°N, 0.7219°W)
Time: 10:36:44
(UTC+01:00)

ISS - Visible Passes

Search period start: 19 May 2025 00:00
Search period end: 29 May 2025 00:00
Orbit: 416 x 419 km, 51.6° (Epoch: 18 May)

Date Brightness Start Highest point End Pass type
(mag) Time Alt. Az. Time Alt. Az. Time Alt. Az.
19 May -3.4 22:51:29 10° W 22:54:44 48° SSW 22:56:12 27° SE visible
20 May -3.7 22:03:25 10° W 22:06:45 62° SSW 22:09:48 12° ESE visible
20 May -1.9 23:40:40 10° W 23:42:42 18° SW 23:42:42 18° SW visible
21 May -2.5 22:52:20 10° W 22:55:12 26° SSW 22:56:19 22° S visible
22 May -2.9 22:04:09 10° W 22:07:16 36° SSW 22:09:56 13° SE visible
23 May -1.5 22:53:46 10° WSW 22:55:27 13° SW 22:56:29 12° SSW visible
24 May -1.8 22:05:05 10° W 22:07:33 19° SW 22:10:02 10° S visible
